Vorticity
nan nan nan nan nan nan nan nan nan nan nan nan nan nan nan nan nan nan nan nan nan nan nan nan nan nan nan nan nan nan nan nan nan nan nan nan nan nan nan nan nan nan nan
nan 10 8 6 6 5 4 4 4 5 5 5 5 5 5 6 6 5 6 4 4 4 4 5 5 6 5 5 6 6 6 5 3 2 4 2 4 6 3 4 8 8 nan
nan 8 9 8 7 6 5 4 5 5 5 5 5 5 5 6 6 8 8 6 5 5 4 5 5 6 6 6 6 6 5 4 1 2 2 4 5 5 4 6 7 5 nan
nan 6 9 9 6 6 5 4 5 5 5 5 5 5 4 5 6 7 8 10 8 7 6 6 6 6 5 6 7 7 6 3 0 2 3 7 6 4 5 6 6 5 nan
nan 7 8 7 6 6 5 3 5 4 5 5 4 4 4 5 4 4 5 7 8 8 7 6 6 6 3 5 6 6 5 1 2 3 6 8 6 5 6 6 7 6 nan
nan 8 8 7 6 5 6 6 5 4 4 4 4 5 5 5 4 5 4 4 5 6 7 5 5 4 3 4 4 3 4 2 2 5 6 6 7 9 7 7 6 6 nan
nan 7 10 9 6 6 5 6 5 6 5 4 4 5 5 5 6 5 4 5 5 7 6 4 3 3 5 8 8 5 3 2 3 5 6 6 9 8 7 6 8 9 nan
nan 16 10 7 7 7 6 7 5 6 6 5 6 6 5 5 6 4 4 5 5 5 5 4 3 4 7 10 11 9 4 3 4 5 6 6 10 8 8 6 6 5 nan
nan 11 15 18 15 8 8 6 7 5 5 6 6 6 7 6 5 5 4 4 5 5 5 5 4 4 7 9 9 7 5 4 4 6 6 7 8 9 7 7 5 4 nan
nan 5 7 9 13 17 12 8 7 7 8 6 6 6 7 8 7 7 5 4 4 5 6 6 5 4 6 9 8 5 5 2 5 6 6 11 9 6 5 8 8 5 nan
nan 5 7 8 8 13 16 15 10 8 8 9 8 7 5 7 9 7 7 8 7 6 4 5 5 4 5 6 7 5 2 4 6 6 10 11 7 5 5 7 7 4 nan
nan 7 8 7 8 12 12 14 15 11 9 9 8 8 7 8 9 9 8 8 6 6 7 6 4 3 3 4 7 6 5 7 6 7 11 10 5 6 7 7 5 4 nan
nan 6 5 8 8 10 11 14 13 10 9 9 8 6 6 7 7 7 8 7 8 6 6 7 5 6 6 6 6 7 8 6 6 8 11 8 6 7 7 7 5 6 nan
nan 7 7 8 9 10 12 9 9 12 11 8 10 7 5 7 7 6 7 8 8 7 7 6 7 7 7 7 7 7 7 6 6 7 11 9 8 8 6 6 5 5 nan
nan 7 8 8 8 9 10 9 9 9 12 12 10 9 6 7 7 6 6 6 7 7 8 7 7 7 7 7 7 7 7 7 6 6 10 10 8 8 8 6 6 5 nan
nan 7 8 8 8 10 9 9 10 8 9 14 12 9 9 7 8 7 7 7 7 6 7 8 8 8 7 8 8 7 7 7 7 6 7 12 10 7 9 7 7 5 nan
nan 6 8 7 8 9 9 10 10 8 8 10 13 16 10 8 9 7 6 7 7 8 7 6 7 8 8 8 9 7 8 8 7 7 7 8 10 11 10 8 9 7 nan
nan 7 8 8 7 9 11 10 9 8 9 7 9 6 14 15 8 9 7 8 7 8 7 6 7 7 8 7 7 8 8 9 8 8 7 7 8 10 11 12 14 9 nan
nan 6 8 8 8 10 11 10 9 9 9 8 8 5 5 17 18 7 8 9 8 7 7 6 6 8 8 8 8 8 9 9 9 9 9 9 8 6 9 14 14 12 nan
nan 8 9 7 7 11 12 10 10 8 7 8 7 5 6 10 17 20 6 9 8 7 7 7 7 6 8 9 9 9 8 8 9 10 9 9 10 8 7 9 10 14 nan
nan 7 7 7 9 11 9 10 9 6 9 7 6 5 8 7 7 15 20 12 8 8 8 6 6 7 6 8 6 8 11 11 8 8 9 9 8 9 8 8 8 10 nan
nan 6 7 8 9 10 9 10 8 8 9 7 6 5 6 5 10 7 9 16 15 7 9 8 4 4 10 7 3 8 9 8 12 10 8 9 7 8 9 9 9 7 nan
nan 7 7 8 9 8 9 11 9 11 8 7 5 7 5 6 7 9 11 8 14 16 9 9 7 3 4 6 7 5 8 10 8 11 11 8 8 6 9 9 8 8 nan
nan 8 7 7 8 8 9 8 10 9 7 8 8 6 4 8 9 9 8 10 14 18 13 8 9 6 5 4 4 7 10 12 8 8 11 11 10 9 7 7 10 10 nan
nan 9 8 7 7 8 9 10 8 7 8 7 6 6 10 10 9 9 10 9 10 18 19 11 9 6 5 6 4 4 6 5 9 11 12 11 9 12 10 9 8 9 nan
nan nan nan nan nan nan nan nan nan nan nan nan nan nan nan nan nan nan nan nan nan nan nan nan nan nan nan nan nan nan nan nan nan nan nan nan nan nan nan nan nan nan nan
CAPE
525 1119 2006 1919 1734 1808 1725 1511 1621 1368 1265 864 665 565 478 383 151 109 329 620 880 926 954 826 402 672 265 509 1054 1106 969 816 705 589 721 723 781 493 308 195 376 313 686
636 1401 2335 2074 1891 1805 2022 1853 1544 1498 1299 1226 702 812 837 553 164 141 81 209 294 307 546 495 152 213 213 294 518 635 762 696 566 409 133 53 165 206 145 174 194 59 615
1248 1774 2129 2319 1866 1973 1945 1723 1878 1646 1583 1519 1134 1034 1076 775 903 852 666 544 202 191 169 310 255 166 139 236 393 739 796 698 421 300 58 0 2 28 11 9 18 24 162
1596 1769 1949 2374 2224 1979 2114 1909 1817 1647 1581 1764 1501 1506 1444 1192 1196 1062 762 651 702 903 464 671 676 903 869 782 728 548 590 509 337 136 0 0 1 7 9 7 5 13 28
1649 1732 1862 2350 2179 1848 1692 1621 2002 1914 1729 1862 1706 1645 1595 1149 879 825 983 968 854 862 736 915 761 753 838 912 745 516 510 403 210 13 0 8 10 5 10 4 6 15 15
1617 1640 1222 1728 2173 1924 1454 1391 1870 1757 1821 1900 1833 1792 1733 1379 633 472 745 830 972 870 764 638 543 484 514 624 685 507 529 291 21 3 2 20 9 8 8 13 6 7 13
1539 1112 961 1526 1749 1840 1579 1394 1567 1683 1754 1722 1825 1748 1497 1374 924 770 706 557 534 484 352 293 468 273 297 707 666 571 457 72 7 0 17 3 3 8 9 11 99 41 23
993 915 832 1080 1384 1437 1385 1384 1243 1538 1916 1677 1414 1401 1213 1286 1331 937 555 340 243 314 243 313 285 144 257 657 705 761 216 18 5 3 3 0 30 5 5 2 85 66 85
0 0 0 463 1036 1221 1149 1170 1170 1418 1280 1611 1394 1415 1233 880 1166 806 671 477 220 181 235 234 182 57 86 548 483 284 84 3 0 6 14 5 36 2 9 33 107 60 48
0 0 0 0 0 230 819 915 961 939 1004 1059 784 852 593 372 515 671 211 359 371 315 226 233 131 13 5 205 269 119 0 0 11 29 10 17 84 2 6 120 70 53 43
0 0 0 0 0 0 22 527 745 844 758 793 546 439 282 178 267 215 131 224 394 369 211 38 0 0 0 0 77 41 8 0 7 21 36 136 125 10 5 95 65 28 5
0 0 0 0 0 0 1 51 238 418 415 369 297 234 228 183 173 189 136 195 221 177 101 50 9 0 0 0 0 15 0 0 12 27 51 179 92 25 55 117 65 10 0
0 0 0 0 0 0 5 9 121 127 218 213 231 146 132 97 61 67 61 25 62 54 8 7 1 0 0 0 0 0 0 0 1 42 55 181 160 29 37 115 70 35 22
0 0 0 0 0 0 0 2 2 7 96 76 90 91 65 43 38 1 39 15 13 11 2 0 0 0 0 0 0 0 1 4 0 20 57 62 150 35 27 114 80 53 29
0 0 0 0 0 0 0 0 0 2 9 87 52 55 105 129 66 24 66 0 5 0 0 0 0 0 0 0 0 0 0 1 6 9 26 48 68 89 33 90 89 72 45
0 0 0 0 0 0 0 0 0 0 1 13 35 18 26 85 42 1 0 0 0 0 0 0 0 0 0 0 0 0 0 0 6 9 18 20 51 94 83 35 96 89 77
0 0 0 0 0 0 0 0 0 0 2 1 12 5 4 8 11 12 3 1 0 0 0 0 0 0 0 0 0 0 0 0 0 5 11 22 45 64 87 145 116 103 81
0 0 0 0 0 0 0 0 0 0 0 0 0 1 10 1 3 5 5 6 0 0 0 0 0 0 0 0 0 0 0 0 0 1 8 19 33 44 61 111 124 112 99
0 0 0 0 0 0 0 0 0 0 0 0 0 0 3 3 2 13 15 11 0 0 0 0 0 0 0 0 0 0 0 0 0 0 4 44 41 34 30 43 83 72 91
0 0 0 0 0 0 0 0 0 0 0 0 0 0 1 0 8 1 12 3 0 0 0 0 0 0 0 0 0 0 0 0 0 0 5 36 38 25 17 19 42 26 43
0 0 0 0 0 0 0 0 0 0 0 0 0 0 0 0 1 1 11 7 0 0 0 0 0 0 0 0 0 0 0 0 0 5 2 9 15 16 20 11 25 11 14
0 0 0 0 0 0 0 0 0 0 0 0 0 0 0 0 0 0 6 7 0 0 0 0 0 0 0 0 0 0 3 30 24 14 23 16 22 11 2 0 26 14 9
0 0 0 0 0 0 0 0 0 0 0 0 0 0 0 0 0 0 0 5 9 9 0 0 0 0 0 0 0 0 11 9 10 3 24 20 22 11 0 4 1 14 4
0 0 0 0 0 0 0 0 0 0 0 0 0 0 0 0 0 0 2 1 1 13 19 0 0 0 0 0 0 0 0 0 3 0 0 24 27 22 3 0 0 7 13
0 0 0 0 0 0 0 0 0 0 0 0 0 0 0 0 0 0 0 2 2 1 16 0 0 0 0 0 0 0 0 0 0 0 0 0 2 12 6 0 0 1 2
0 0 0 0 0 0 0 0 0 0 0 0 0 0 0 0 1 2 2 3 8 4 10 13 0 0 0 0 0 0 0 0 0 0 0 0 0 2 6 0 0 0 2